Showing default

AE5RA, 66685

Orbit data source: Space-Track

AE5RA, 66685 is a payload satellite owned by ArkEdge (JP) in SSO that was launched on Fri, 28 Nov 2025 UTC via an FALCON 9 launch vehicle from the Air Force Western Test Range (AFWTR). Payload-class satellites include a variety of spacecraft equipped with specific instruments for various scientific and technological missions. These include communications satellites like Starlink; space stations such as the ISS; scientific satellites like the Hubble; Earth observation satellites from companies like Planet Labs, Umbra, and HawkEye 360; GPS; miniature CubeSats for education and research; and military/defense satellites.

Loading next visibility...
Identifier
66685, 2025-276V
Orbit
SSO
Country
Flag of JPJP / JPN
Related business
Manufacturer
ArkEdge
Mission
Operational Commercial Sigint
Bus & Motor
CUBESAT 6U, Unknown motor
Mass
~10 kg wet, ~10 kg dry
Launch date (UTC)
2025-11-28 (9 months ago)
Launch vehicle
FALCON 9
Launch site
Air Force Western Test Range (AFWTR)
Object type
Payload
Rocket body
Debris
Shape & HBR
Box + 2 Pan, 0.2 m
Radar Cross Section
0.080 m², Medium (>0.1 m² and < 1m²)

Expand to show TLE details & history
Last TLE update: 17 hours ago

TLE from 17 hours ago
0 AE5RA
1 66685U 25276V   26238.15747857  .00011756  00000-0  48250-3 0  9990
2 66685  97.4175 311.3996 0005891 120.1940 239.9882 15.24365097 41107
Epoch: 2026-08-26T03:46Z
TLE epoch observation values (Epoch: 2026-08-26T03:46:46.148Z)
Latitude
0.00002°
Longitude
-79.70719°
Altitude
497.815 km
Speed
7.615 km/s
True Right ascension
20h 45m 35s
True Declination
0° 00' 00"
Sunlit
Object was in full shadow at epoch
Visualization orbit readout
Latitude
Unknown
Longitude
Unknown
Altitude
Unknown
Speed
Unknown
Apparent Right ascension
Unknown
Apparent Declination
Unknown
Sunlit
N/A
Visualization observer readout
Local Sidereal Time
11:46:34
Azimuth
Unknown
Elevation
Unknown
Doppler factor
Unknown
Orbital elements
Apogee altitude
493.699 km
Perigee altitude
485.607 km
Semi-major axis
6,867.79 km
Eccentricity
0.00059
Inclination
97.4175°
RAAN
311.3996°
Arg. of periapsis
120.194°
True anomaly
239.92977°
Mean anomaly
239.9882°
Eccentric anomaly
239.95898°
Mean motion
3.81345 °/min
Orbital period
94.4 mins
BSTAR
0.0004825
Loading maneuver chart data...
Computing Atmospheric mass density...
Loading historical data...
Loading historical data...
Loading historical data...
Loading historical data...
Loading historical data...
Loading historical data...
Loading historical data...

Documentation

Showing up to 5 results
|